Weather History for Billings, MT

Change the Weather History Date:

Tuesday, October 9, 2012

  Actual Average Record
Temperature  
Mean Temperature 45 °F 51 °F  
Max Temperature 55 °F 62 °F 85 °F (1965)
Min Temperature 35 °F 39 °F 18 °F (1985)
Degree Days  
Heating Degree Days 20 14  
Month to date heating degree days 168 117  
Since 1 July heating degree days 233 346  
Cooling Degree Days 0 0  
Month to date cooling degree days 3 0  
Year to date cooling degree days 958 633  
Moisture  
Dew Point 34 °F    
Average Humidity 48    
Maximum Humidity 54    
Minimum Humidity 41    
Precipitation  
Precipitation 0.02 in 0.04 in 0.42 in (1960)
Month to date precipitation 0.73 0.41  
Year to date precipitation 5.81 11.76  
Snow  
Snow 0.10 in 0.10 in 3.40 in (1977)
Month to date snowfall 3.4 1.0  
Since 1 July snowfall 3.4 2.1  
Since 1 September snowfall 3.4 2.1  
Snow Depth 0.00 in    
Sea Level Pressure  
Sea Level Pressure 30.12 in    
Wind  
Wind Speed 10 mph (SW)    
Max Wind Speed 16 mph    
Max Gust Speed 21 mph    
Visibility 9 miles    
Events Fog , Rain , Snow    
T = Trace of Precipitation, MM = Missing Value Source: NWS Daily Summary

Daily Weather History Graph

Daily Weather History Graph

Search for Another Location

Airport:

Trip Planner

Search our weather history database for the weather conditions in past years. The results will help you decide how hot, cold, wet, or windy it might be!

Date:

Astronomy

Oct. 09, 2012 Rise Set
Actual Time 7:23 AM MDT 6:38 PM MDT
Civil Twilight 6:53 AM MDT 7:07 PM MDT
Nautical Twilight 6:19 AM MDT 7:42 PM MDT
Astronomical Twilight 5:44 AM MDT 8:16 PM MDT
Moon 12:45 AM MDT (10/9) 3:23 PM MDT (10/9)
Length of Visible Light 12h 14m
Length of Day
11h 14m
Last Quarter, 36% of the Moon is Illuminated
Oct 9
Last Quarter
Oct 15
New
Oct 21
First Quarter
Oct 29
Full
Nov 6
Last Quarter

Hourly Weather History & Observations

Time (MDT) Temp. Windchill Dew Point Humidity Pressure Visibility Wind Dir Wind Speed Gust Speed Precip Events Conditions
12:07 AM 37.4 °F 30.3 °F 35.6 °F 93% 30.08 in 8.0 mi NNE 10.4 mph - 0.01 in Rain Light Rain
12:18 AM 37.4 °F 30.8 °F 35.6 °F 93% 30.08 in 10.0 mi NNE 9.2 mph - 0.01 in Rain , Snow Light Rain
12:26 AM 37.4 °F 30.3 °F 35.6 °F 93% 30.09 in 10.0 mi NNE 10.4 mph - 0.01 in Rain , Snow Light Rain
12:34 AM 37.4 °F 30.8 °F 33.8 °F 87% 30.09 in 10.0 mi NNE 9.2 mph - N/A Rain , Snow Light Rain
12:53 AM 36.0 °F 32.1 °F 34.0 °F 93% 30.13 in 9.0 mi NNE 4.6 mph - 0.02 in Rain , Snow Light Rain
1:10 AM 35.6 °F 30.7 °F 33.8 °F 93% 30.09 in 8.0 mi East 5.8 mph - 0.00 in Rain , Snow Light Rain
1:37 AM 35.6 °F 30.7 °F 33.8 °F 93% 30.09 in 9.0 mi South 5.8 mph - 0.02 in Rain , Snow Light Rain
1:45 AM 35.6 °F 30.7 °F 33.8 °F 93% 30.10 in 10.0 mi SSW 5.8 mph - N/A Rain , Snow Light Rain
2:03 AM 35.6 °F 28.6 °F 33.8 °F 93% 30.09 in 9.0 mi SSW 9.2 mph - 0.00 in Fog , Rain Light Rain
2:14 AM 35.6 °F 28.6 °F 33.8 °F 93% 30.09 in 3.0 mi SSW 9.2 mph - 0.00 in Rain Light Rain
2:31 AM 35.6 °F 28.6 °F 33.8 °F 93% 30.09 in 5.0 mi SSW 9.2 mph - 0.00 in   Light Drizzle
2:53 AM 35.1 °F 28.6 °F 34.0 °F 96% 30.14 in 8.0 mi SW 8.1 mph - 0.00 in Fog Light Drizzle
2:58 AM 35.6 °F 29.2 °F 33.8 °F 93% 30.09 in 8.0 mi SSW 8.1 mph - 0.00 in Fog Light Drizzle
3:13 AM 35.6 °F 29.2 °F 35.6 °F 100% 30.09 in 7.0 mi SSW 8.1 mph - 0.00 in   Light Drizzle
3:33 AM 35.6 °F 28.6 °F 35.6 °F 100% 30.08 in 10.0 mi SW 9.2 mph - 0.00 in Rain Light Rain
3:53 AM 36.0 °F 29.0 °F 34.0 °F 93% 30.13 in 10.0 mi SW 9.2 mph - 0.00 in Rain Light Rain
4:53 AM 36.0 °F 29.0 °F 34.0 °F 93% 30.14 in 10.0 mi SW 9.2 mph - 0.00 in Rain Light Rain
5:38 AM 35.6 °F 28.6 °F 35.6 °F 100% 30.09 in 10.0 mi SW 9.2 mph - 0.00 in   Overcast
5:53 AM 36.0 °F 28.0 °F 35.1 °F 97% 30.13 in 10.0 mi SW 11.5 mph - 0.00 in   Overcast
6:53 AM 37.0 °F 29.8 °F 35.1 °F 93% 30.14 in 10.0 mi SW 10.4 mph - N/A   Mostly Cloudy
7:53 AM 37.0 °F 30.4 °F 35.1 °F 93% 30.17 in 10.0 mi WSW 9.2 mph - N/A   Mostly Cloudy
8:53 AM 37.9 °F 32.1 °F 36.0 °F 93% 30.19 in 10.0 mi SW 8.1 mph - N/A   Overcast
9:53 AM 39.9 °F 34.5 °F 37.0 °F 89% 30.19 in 10.0 mi South 8.1 mph - N/A   Mostly Cloudy
10:53 AM 42.1 °F 39.2 °F 36.0 °F 79% 30.20 in 10.0 mi WSW 4.6 mph - N/A   Mostly Cloudy
11:53 AM 45.0 °F 42.6 °F 37.0 °F 74% 30.18 in 10.0 mi South 4.6 mph - N/A   Mostly Cloudy
12:53 PM 46.9 °F - 37.0 °F 68% 30.16 in 10.0 mi SW 9.2 mph - N/A   Mostly Cloudy
1:53 PM 48.9 °F - 36.0 °F 61% 30.15 in 10.0 mi West 6.9 mph - N/A   Partly Cloudy
2:53 PM 52.0 °F - 36.0 °F 54% 30.11 in 10.0 mi WSW 9.2 mph 17.3 mph N/A   Partly Cloudy
3:53 PM 53.1 °F - 36.0 °F 52% 30.09 in 10.0 mi SSW 13.8 mph - N/A   Scattered Clouds
4:53 PM 54.0 °F - 36.0 °F 51% 30.08 in 10.0 mi SSW 8.1 mph - N/A   Scattered Clouds
5:53 PM 54.0 °F - 34.0 °F 47% 30.08 in 10.0 mi SW 13.8 mph - N/A   Scattered Clouds
6:53 PM 53.1 °F - 30.0 °F 41% 30.10 in 10.0 mi North 5.8 mph - N/A   Partly Cloudy
7:53 PM 50.0 °F - 33.1 °F 52% 30.10 in 10.0 mi SW 9.2 mph - N/A   Partly Cloudy
8:53 PM 48.0 °F - 30.9 °F 52% 30.12 in 10.0 mi West 10.4 mph - N/A   Clear
9:53 PM 48.0 °F - 28.9 °F 48% 30.11 in 10.0 mi WSW 13.8 mph - N/A   Clear
10:53 PM 46.0 °F 39.6 °F 28.0 °F 50% 30.10 in 10.0 mi WSW 15.0 mph - N/A   Clear
11:53 PM 45.0 °F 38.2 °F 27.0 °F 49% 30.09 in 10.0 mi WSW 15.0 mph - N/A   Clear